Weather in Pokrovka

Russia / Samara Oblast     52°57′13″N   51°02′43″E
temp.,
°C
wind,
m/s
gust,
m/s
humid.,
%
clouds,
%
prec.,
mm/h
press.,
hPa
HPBL,
m
1 march, mon
mon101:00−15nnw379594 0.2 1015234
04:00−19nw349670 0.2 101661
07:00−21nw339735 0.0 101846
10:00−18nw359319 0.0 1020236
13:00−15nw359037 0.0 1021343
16:00−13nw368960 0.0 1022491
19:00−19nw129842 0.0 102220
22:00−19wsw229825 0.0 102220
2 march, tue
tue201:00−18sw339823 0.0 102136
04:00−15sw499658 0.0 1018209
07:00−13sw61193100 0.0 1015313
10:00−9sw71391100 0.1 1012501
13:00−4sw81395100 0.9 1008720
16:00−1sw81395100 2.0 1005707
19:00−1sw71396100 1.5 1003732
22:000wsw61296100 2.6 1002570
3 march, wed
wed301:00−1w4894100 0.6 1002368
04:00−5wnw349590 0.6 100272
07:00−9wnw239572 0.0 100321
10:00−6w239439 0.0 1004119
13:00−3wnw249245 0.0 1004322
16:00−2wnw359167 0.1 1004596
19:00−5nw3895100 0.1 1005228
22:00−10nw479278 0.1 1008127
4 march, thu
thu401:00−10wnw369580 0.1 1008134
04:00−12w469570 0.1 1009107
07:00−14wsw37950 0.0 1010106
10:00−9wsw599432 0.0 1010335
13:00−6sw61092100 0.0 1009483
16:00−3sw81292100 0.1 1008912
19:00−2sw81590100 0.2 1005895
22:00−1sw91692100 0.4 1004983
5 march, fri
fri501:000sw91687100 0.1 10021073
04:00−1sw91784100 0.1 1001876
07:00−1wsw91790100 0.1 1002876
10:000w81393100 0.2 1005967
13:00−1nw477999 0.3 1008726
16:00−1nw248598 0.3 1011511
19:00−8n128893 0.0 101221
22:00−10ne228784 0.0 101421